owner,sensor,date,latitude,longitude,sea_surface_height_above_sea_level,qcFlag 
TCOON,ioos:station:TCOON:006:1,2014-02-01T00:06:00Z,27.8217,-97.2040,0.946,1111122 
TCOON,ioos:station:TCOON:006:1,2014-02-01T00:36:00Z,27.8217,-97.2040,0.905,1111122 
TCOON,ioos:station:TCOON:006:1,2014-02-01T01:06:00Z,27.8217,-97.2040,0.958,1111122 
TCOON,ioos:station:TCOON:006:1,2014-02-01T01:36:00Z,27.8217,-97.2040,0.981,1111122 
TCOON,ioos:station:TCOON:006:1,2014-02-01T02:06:00Z,27.8217,-97.2040,0.983,1111122 
TCOON,ioos:station:TCOON:006:1,2014-02-01T02:36:00Z,27.8217,-97.2040,0.969,1111122 
TCOON,ioos:station:TCOON:006:1,2014-02-01T03:06:00Z,27.8217,-97.2040,1.0,1111122 
TCOON,ioos:station:TCOON:006:1,2014-02-01T03:36:00Z,27.8217,-97.2040,1.01,1111122 
TCOON,ioos:station:TCOON:006:1,2014-02-01T04:06:00Z,27.8217,-97.2040,1.006,1111122 
TCOON,ioos:station:TCOON:006:1,2014-02-01T04:36:00Z,27.8217,-97.2040,1.008,1111122 
TCOON,ioos:station:TCOON:006:1,2014-02-01T05:06:00Z,27.8217,-97.2040,1.019,1111122 
TCOON,ioos:station:TCOON:006:1,2014-02-01T05:54:00Z,27.8217,-97.2040,1.018,1111122 
TCOON,ioos:station:TCOON:006:1,2014-02-01T06:36:00Z,27.8217,-97.2040,1.025,1111122 
TCOON,ioos:station:TCOON:006:1,2014-02-01T07:06:00Z,27.8217,-97.2040,1.036,1111122 
TCOON,ioos:station:TCOON:006:1,2014-02-01T07:36:00Z,27.8217,-97.2040,1.037,1111122 
TCOON,ioos:station:TCOON:006:1,2014-02-01T08:06:00Z,27.8217,-97.2040,1.039,1111122 
TCOON,ioos:station:TCOON:006:1,2014-02-01T08:36:00Z,27.8217,-97.2040,1.046,1111122 
TCOON,ioos:station:TCOON:006:1,2014-02-01T09:06:00Z,27.8217,-97.2040,1.051,1111122 
TCOON,ioos:station:TCOON:006:1,2014-02-01T09:36:00Z,27.8217,-97.2040,1.056,1111122 
TCOON,ioos:station:TCOON:006:1,2014-02-01T10:06:00Z,27.8217,-97.2040,1.059,1111122 
TCOON,ioos:station:TCOON:006:1,2014-02-01T10:36:00Z,27.8217,-97.2040,1.061,1111122 
TCOON,ioos:station:TCOON:006:1,2014-02-01T11:06:00Z,27.8217,-97.2040,1.06,1111122 
TCOON,ioos:station:TCOON:006:1,2014-02-01T11:36:00Z,27.8217,-97.2040,1.06,1111122 
TCOON,ioos:station:TCOON:006:1,2014-02-01T12:06:00Z,27.8217,-97.2040,1.052,1111122 
TCOON,ioos:station:TCOON:006:1,2014-02-01T12:42:00Z,27.8217,-97.2040,1.04,1111122 
TCOON,ioos:station:TCOON:006:1,2014-02-01T13:06:00Z,27.8217,-97.2040,1.037,1111122 
TCOON,ioos:station:TCOON:006:1,2014-02-01T13:36:00Z,27.8217,-97.2040,1.024,1111122 
TCOON,ioos:station:TCOON:006:1,2014-02-01T14:06:00Z,27.8217,-97.2040,1.006,1111122 
TCOON,ioos:station:TCOON:006:1,2014-02-01T14:36:00Z,27.8217,-97.2040,0.996,1111122 
TCOON,ioos:station:TCOON:006:1,2014-02-01T15:06:00Z,27.8217,-97.2040,0.984,1111122 
TCOON,ioos:station:TCOON:006:1,2014-02-01T15:30:00Z,27.8217,-97.2040,0.97,1111122 
TCOON,ioos:station:TCOON:006:1,2014-02-01T16:06:00Z,27.8217,-97.2040,0.954,1111122 
TCOON,ioos:station:TCOON:006:1,2014-02-01T16:36:00Z,27.8217,-97.2040,0.937,1111122 
TCOON,ioos:station:TCOON:006:1,2014-02-01T17:06:00Z,27.8217,-97.2040,0.927,1111122 
TCOON,ioos:station:TCOON:006:1,2014-02-01T17:30:00Z,27.8217,-97.2040,0.917,1111122 
TCOON,ioos:station:TCOON:006:1,2014-02-01T18:00:00Z,27.8217,-97.2040,0.906,1111122 
TCOON,ioos:station:TCOON:006:1,2014-02-01T18:36:00Z,27.8217,-97.2040,0.887,1111122 
TCOON,ioos:station:TCOON:006:1,2014-02-01T19:06:00Z,27.8217,-97.2040,0.892,1111122 
TCOON,ioos:station:TCOON:006:1,2014-02-01T19:36:00Z,27.8217,-97.2040,0.867,1111122 
TCOON,ioos:station:TCOON:006:1,2014-02-01T20:06:00Z,27.8217,-97.2040,0.876,1111122 
TCOON,ioos:station:TCOON:006:1,2014-02-01T20:36:00Z,27.8217,-97.2040,0.872,1111122 
TCOON,ioos:station:TCOON:006:1,2014-02-01T21:06:00Z,27.8217,-97.2040,0.88,1111122 
TCOON,ioos:station:TCOON:006:1,2014-02-01T21:36:00Z,27.8217,-97.2040,0.878,1111122 
TCOON,ioos:station:TCOON:006:1,2014-02-01T22:00:00Z,27.8217,-97.2040,0.883,1111122 
TCOON,ioos:station:TCOON:006:1,2014-02-01T22:36:00Z,27.8217,-97.2040,0.894,1111122 
TCOON,ioos:station:TCOON:006:1,2014-02-01T23:06:00Z,27.8217,-97.2040,0.911,1111122 
TCOON,ioos:station:TCOON:006:1,2014-02-01T23:36:00Z,27.8217,-97.2040,0.921,1111122 
TCOON,ioos:station:TCOON:006:1,2014-02-02T00:06:00Z,27.8217,-97.2040,0.934,1111122 
TCOON,ioos:station:TCOON:006:1,2014-02-02T00:36:00Z,27.8217,-97.2040,0.947,1111122 
TCOON,ioos:station:TCOON:006:1,2014-02-02T01:00:00Z,27.8217,-97.2040,0.954,1111122 
TCOON,ioos:station:TCOON:006:1,2014-02-02T01:36:00Z,27.8217,-97.2040,0.956,1111122 
TCOON,ioos:station:TCOON:006:1,2014-02-02T02:06:00Z,27.8217,-97.2040,0.964,1111122 
TCOON,ioos:station:TCOON:006:1,2014-02-02T02:36:00Z,27.8217,-97.2040,0.974,1111122 
TCOON,ioos:station:TCOON:006:1,2014-02-02T03:06:00Z,27.8217,-97.2040,0.976,1111122 
TCOON,ioos:station:TCOON:006:1,2014-02-02T03:36:00Z,27.8217,-97.2040,0.982,1111122 
TCOON,ioos:station:TCOON:006:1,2014-02-02T04:06:00Z,27.8217,-97.2040,0.983,1111122 
TCOON,ioos:station:TCOON:006:1,2014-02-02T04:36:00Z,27.8217,-97.2040,0.99,1111122 
TCOON,ioos:station:TCOON:006:1,2014-02-02T05:06:00Z,27.8217,-97.2040,0.991,1111122 
TCOON,ioos:station:TCOON:006:1,2014-02-02T05:36:00Z,27.8217,-97.2040,0.989,1111122 
TCOON,ioos:station:TCOON:006:1,2014-02-02T06:06:00Z,27.8217,-97.2040,0.988,1111122 
TCOON,ioos:station:TCOON:006:1,2014-02-02T06:36:00Z,27.8217,-97.2040,0.99,1111122 
TCOON,ioos:station:TCOON:006:1,2014-02-02T07:06:00Z,27.8217,-97.2040,0.99,1111122 
TCOON,ioos:station:TCOON:006:1,2014-02-02T07:36:00Z,27.8217,-97.2040,0.988,1111122 
TCOON,ioos:station:TCOON:006:1,2014-02-02T08:06:00Z,27.8217,-97.2040,0.986,1111122 
TCOON,ioos:station:TCOON:006:1,2014-02-02T08:36:00Z,27.8217,-97.2040,0.989,1111122 
TCOON,ioos:station:TCOON:006:1,2014-02-02T09:06:00Z,27.8217,-97.2040,0.989,1111122 
TCOON,ioos:station:TCOON:006:1,2014-02-02T09:36:00Z,27.8217,-97.2040,0.995,1111122 
TCOON,ioos:station:TCOON:006:1,2014-02-02T10:06:00Z,27.8217,-97.2040,1.002,1111122 
TCOON,ioos:station:TCOON:006:1,2014-02-02T10:36:00Z,27.8217,-97.2040,1.007,1111122 
TCOON,ioos:station:TCOON:006:1,2014-02-02T11:06:00Z,27.8217,-97.2040,1.011,1111122 
TCOON,ioos:station:TCOON:006:1,2014-02-02T11:36:00Z,27.8217,-97.2040,1.016,1111122 
TCOON,ioos:station:TCOON:006:1,2014-02-02T12:06:00Z,27.8217,-97.2040,1.013,1111122 
TCOON,ioos:station:TCOON:006:1,2014-02-02T12:36:00Z,27.8217,-97.2040,1.017,1111122 
TCOON,ioos:station:TCOON:006:1,2014-02-02T13:06:00Z,27.8217,-97.2040,1.011,1111122 
TCOON,ioos:station:TCOON:006:1,2014-02-02T13:36:00Z,27.8217,-97.2040,1.007,1111122 
TCOON,ioos:station:TCOON:006:1,2014-02-02T14:06:00Z,27.8217,-97.2040,1.0,1111122 
TCOON,ioos:station:TCOON:006:1,2014-02-02T14:36:00Z,27.8217,-97.2040,0.99,1111122 
TCOON,ioos:station:TCOON:006:1,2014-02-02T15:06:00Z,27.8217,-97.2040,0.981,1111122 
TCOON,ioos:station:TCOON:006:1,2014-02-02T15:36:00Z,27.8217,-97.2040,0.972,1111122 
TCOON,ioos:station:TCOON:006:1,2014-02-02T16:06:00Z,27.8217,-97.2040,0.957,1111122 
TCOON,ioos:station:TCOON:006:1,2014-02-02T17:06:00Z,27.8217,-97.2040,0.937,1111122 
TCOON,ioos:station:TCOON:006:1,2014-02-02T17:36:00Z,27.8217,-97.2040,0.92,1111122 
TCOON,ioos:station:TCOON:006:1,2014-02-02T18:06:00Z,27.8217,-97.2040,0.899,1111122 
TCOON,ioos:station:TCOON:006:1,2014-02-02T18:36:00Z,27.8217,-97.2040,0.867,1111122 
TCOON,ioos:station:TCOON:006:1,2014-02-02T19:06:00Z,27.8217,-97.2040,0.87,1111122 
TCOON,ioos:station:TCOON:006:1,2014-02-02T19:36:00Z,27.8217,-97.2040,0.864,1111122 
TCOON,ioos:station:TCOON:006:1,2014-02-02T20:06:00Z,27.8217,-97.2040,0.821,1111122 
TCOON,ioos:station:TCOON:006:1,2014-02-02T20:36:00Z,27.8217,-97.2040,0.869,1111122 
TCOON,ioos:station:TCOON:006:1,2014-02-02T21:24:00Z,27.8217,-97.2040,0.872,1111122 
TCOON,ioos:station:TCOON:006:1,2014-02-02T22:00:00Z,27.8217,-97.2040,0.852,1111122 
TCOON,ioos:station:TCOON:006:1,2014-02-02T22:36:00Z,27.8217,-97.2040,0.83,1111122 
TCOON,ioos:station:TCOON:006:1,2014-02-02T23:06:00Z,27.8217,-97.2040,0.84,1111122 
TCOON,ioos:station:TCOON:006:1,2014-02-02T23:36:00Z,27.8217,-97.2040,0.845,1111122 
TCOON,ioos:station:TCOON:006:1,2014-02-03T00:06:00Z,27.8217,-97.2040,0.865,1111122 
TCOON,ioos:station:TCOON:006:1,2014-02-03T00:36:00Z,27.8217,-97.2040,0.865,1111122 
TCOON,ioos:station:TCOON:006:1,2014-02-03T01:06:00Z,27.8217,-97.2040,0.865,1111122 
TCOON,ioos:station:TCOON:006:1,2014-02-03T01:36:00Z,27.8217,-97.2040,0.883,1111122 
TCOON,ioos:station:TCOON:006:1,2014-02-03T02:06:00Z,27.8217,-97.2040,0.88,1111122 
TCOON,ioos:station:TCOON:006:1,2014-02-03T02:36:00Z,27.8217,-97.2040,0.87,1111122 
TCOON,ioos:station:TCOON:006:1,2014-02-03T03:06:00Z,27.8217,-97.2040,0.879,1111122 
TCOON,ioos:station:TCOON:006:1,2014-02-03T04:36:00Z,27.8217,-97.2040,0.881,1111122 
TCOON,ioos:station:TCOON:006:1,2014-02-03T05:06:00Z,27.8217,-97.2040,0.877,1111122 
TCOON,ioos:station:TCOON:006:1,2014-02-03T06:06:00Z,27.8217,-97.2040,0.862,1111122 
TCOON,ioos:station:TCOON:006:1,2014-02-03T06:36:00Z,27.8217,-97.2040,0.864,1111122 
TCOON,ioos:station:TCOON:006:1,2014-02-03T07:06:00Z,27.8217,-97.2040,0.86,1111122 
TCOON,ioos:station:TCOON:006:1,2014-02-03T07:36:00Z,27.8217,-97.2040,0.864,1111122 
TCOON,ioos:station:TCOON:006:1,2014-02-03T08:06:00Z,27.8217,-97.2040,0.853,1111122 
TCOON,ioos:station:TCOON:006:1,2014-02-03T08:36:00Z,27.8217,-97.2040,0.842,1111122 
TCOON,ioos:station:TCOON:006:1,2014-02-03T09:06:00Z,27.8217,-97.2040,0.858,1111122 
TCOON,ioos:station:TCOON:006:1,2014-02-03T10:00:00Z,27.8217,-97.2040,0.86,1111122 
TCOON,ioos:station:TCOON:006:1,2014-02-03T10:36:00Z,27.8217,-97.2040,0.853,1111122 
TCOON,ioos:station:TCOON:006:1,2014-02-03T11:06:00Z,27.8217,-97.2040,0.878,1111122 
TCOON,ioos:station:TCOON:006:1,2014-02-03T11:36:00Z,27.8217,-97.2040,0.861,1111122 
TCOON,ioos:station:TCOON:006:1,2014-02-03T12:24:00Z,27.8217,-97.2040,0.876,1111122 
TCOON,ioos:station:TCOON:006:1,2014-02-03T13:06:00Z,27.8217,-97.2040,0.887,1111122 
TCOON,ioos:station:TCOON:006:1,2014-02-03T13:36:00Z,27.8217,-97.2040,0.886,1111122 
TCOON,ioos:station:TCOON:006:1,2014-02-03T14:06:00Z,27.8217,-97.2040,0.896,1111122 
TCOON,ioos:station:TCOON:006:1,2014-02-03T14:36:00Z,27.8217,-97.2040,0.885,1111122 
TCOON,ioos:station:TCOON:006:1,2014-02-03T15:06:00Z,27.8217,-97.2040,0.888,1111122 
TCOON,ioos:station:TCOON:006:1,2014-02-03T15:36:00Z,27.8217,-97.2040,0.889,1111122 
TCOON,ioos:station:TCOON:006:1,2014-02-03T17:06:00Z,27.8217,-97.2040,0.849,1111122 
TCOON,ioos:station:TCOON:006:1,2014-02-03T17:36:00Z,27.8217,-97.2040,0.845,1111122 
TCOON,ioos:station:TCOON:006:1,2014-02-03T18:36:00Z,27.8217,-97.2040,0.834,1111122 
TCOON,ioos:station:TCOON:006:1,2014-02-03T19:06:00Z,27.8217,-97.2040,0.829,1111122 
TCOON,ioos:station:TCOON:006:1,2014-02-03T19:36:00Z,27.8217,-97.2040,0.824,1111122 
TCOON,ioos:station:TCOON:006:1,2014-02-03T20:06:00Z,27.8217,-97.2040,0.809,1111122 
TCOON,ioos:station:TCOON:006:1,2014-02-03T20:36:00Z,27.8217,-97.2040,0.804,1111122 
TCOON,ioos:station:TCOON:006:1,2014-02-03T21:06:00Z,27.8217,-97.2040,0.797,1111122 
TCOON,ioos:station:TCOON:006:1,2014-02-03T21:36:00Z,27.8217,-97.2040,0.796,1111122 
TCOON,ioos:station:TCOON:006:1,2014-02-03T22:06:00Z,27.8217,-97.2040,0.793,1111122 
TCOON,ioos:station:TCOON:006:1,2014-02-03T22:48:00Z,27.8217,-97.2040,0.796,1111122 
TCOON,ioos:station:TCOON:006:1,2014-02-04T00:18:00Z,27.8217,-97.2040,0.817,1111122 
TCOON,ioos:station:TCOON:006:1,2014-02-04T01:06:00Z,27.8217,-97.2040,0.821,1111122 
TCOON,ioos:station:TCOON:006:1,2014-02-04T01:36:00Z,27.8217,-97.2040,0.832,1111122 
TCOON,ioos:station:TCOON:006:1,2014-02-04T02:06:00Z,27.8217,-97.2040,0.834,1111122 
TCOON,ioos:station:TCOON:006:1,2014-02-04T02:36:00Z,27.8217,-97.2040,0.84,1111122 
TCOON,ioos:station:TCOON:006:1,2014-02-04T03:06:00Z,27.8217,-97.2040,0.842,1111122 
TCOON,ioos:station:TCOON:006:1,2014-02-04T03:36:00Z,27.8217,-97.2040,0.844,1111122 
TCOON,ioos:station:TCOON:006:1,2014-02-04T04:06:00Z,27.8217,-97.2040,0.847,1111122 
TCOON,ioos:station:TCOON:006:1,2014-02-04T05:18:00Z,27.8217,-97.2040,0.846,1111122 
TCOON,ioos:station:TCOON:006:1,2014-02-04T05:36:00Z,27.8217,-97.2040,0.845,1111122 
TCOON,ioos:station:TCOON:006:1,2014-02-04T06:24:00Z,27.8217,-97.2040,0.854,1111122 
TCOON,ioos:station:TCOON:006:1,2014-02-04T06:36:00Z,27.8217,-97.2040,0.848,1111122 
TCOON,ioos:station:TCOON:006:1,2014-02-04T07:06:00Z,27.8217,-97.2040,0.859,1111122 
TCOON,ioos:station:TCOON:006:1,2014-02-14T14:30:00Z,27.8217,-97.2040,0.834,1111122 
TCOON,ioos:station:TCOON:006:1,2014-02-14T15:00:00Z,27.8217,-97.2040,0.827,1111122 
TCOON,ioos:station:TCOON:006:1,2014-02-14T15:30:00Z,27.8217,-97.2040,0.812,1111122 
TCOON,ioos:station:TCOON:006:1,2014-02-14T16:00:00Z,27.8217,-97.2040,0.806,1111122 
TCOON,ioos:station:TCOON:006:1,2014-02-14T16:30:00Z,27.8217,-97.2040,0.796,1111122 
TCOON,ioos:station:TCOON:006:1,2014-02-14T17:00:00Z,27.8217,-97.2040,0.793,1111122 
TCOON,ioos:station:TCOON:006:1,2014-02-14T17:30:00Z,27.8217,-97.2040,0.782,1111122 
TCOON,ioos:station:TCOON:006:1,2014-02-14T18:00:00Z,27.8217,-97.2040,0.774,1111122 
TCOON,ioos:station:TCOON:006:1,2014-02-14T18:30:00Z,27.8217,-97.2040,0.733,1111122 
TCOON,ioos:station:TCOON:006:1,2014-02-14T19:00:00Z,27.8217,-97.2040,0.768,1111122 
TCOON,ioos:station:TCOON:006:1,2014-02-14T19:30:00Z,27.8217,-97.2040,0.772,1111122 
TCOON,ioos:station:TCOON:006:1,2014-02-14T20:00:00Z,27.8217,-97.2040,0.78,1111122 
TCOON,ioos:station:TCOON:006:1,2014-02-14T20:30:00Z,27.8217,-97.2040,0.783,1111122 
TCOON,ioos:station:TCOON:006:1,2014-02-14T21:00:00Z,27.8217,-97.2040,0.796,1111122 
TCOON,ioos:station:TCOON:006:1,2014-02-14T21:30:00Z,27.8217,-97.2040,0.808,1111122 
TCOON,ioos:station:TCOON:006:1,2014-02-14T22:00:00Z,27.8217,-97.2040,0.825,1111122 
TCOON,ioos:station:TCOON:006:1,2014-02-14T22:30:00Z,27.8217,-97.2040,0.835,1111122 
TCOON,ioos:station:TCOON:006:1,2014-02-14T23:00:00Z,27.8217,-97.2040,0.838,1111122 
TCOON,ioos:station:TCOON:006:1,2014-02-14T23:36:00Z,27.8217,-97.2040,0.851,1111122 
TCOON,ioos:station:TCOON:006:1,2014-02-15T00:00:00Z,27.8217,-97.2040,0.856,1111122 
TCOON,ioos:station:TCOON:006:1,2014-02-15T00:30:00Z,27.8217,-97.2040,0.87,1111122 
TCOON,ioos:station:TCOON:006:1,2014-02-15T01:00:00Z,27.8217,-97.2040,0.87,1111122 
TCOON,ioos:station:TCOON:006:1,2014-02-15T01:30:00Z,27.8217,-97.2040,0.878,1111122 
TCOON,ioos:station:TCOON:006:1,2014-02-15T02:00:00Z,27.8217,-97.2040,0.883,1111122 
TCOON,ioos:station:TCOON:006:1,2014-02-15T02:30:00Z,27.8217,-97.2040,0.895,1111122 
TCOON,ioos:station:TCOON:006:1,2014-02-15T03:00:00Z,27.8217,-97.2040,0.899,1111122 
TCOON,ioos:station:TCOON:006:1,2014-02-15T03:30:00Z,27.8217,-97.2040,0.9,1111122 
TCOON,ioos:station:TCOON:006:1,2014-02-15T04:00:00Z,27.8217,-97.2040,0.899,1111122 
TCOON,ioos:station:TCOON:006:1,2014-02-15T04:30:00Z,27.8217,-97.2040,0.896,1111122 
TCOON,ioos:station:TCOON:006:1,2014-02-15T05:00:00Z,27.8217,-97.2040,0.899,1111122 
TCOON,ioos:station:TCOON:006:1,2014-02-15T05:30:00Z,27.8217,-97.2040,0.901,1111122 
TCOON,ioos:station:TCOON:006:1,2014-02-15T06:00:00Z,27.8217,-97.2040,0.893,1111122 
TCOON,ioos:station:TCOON:006:1,2014-02-15T06:30:00Z,27.8217,-97.2040,0.885,1111122 
TCOON,ioos:station:TCOON:006:1,2014-02-15T07:00:00Z,27.8217,-97.2040,0.882,1111122 
TCOON,ioos:station:TCOON:006:1,2014-02-15T07:30:00Z,27.8217,-97.2040,0.88,1111122 
TCOON,ioos:station:TCOON:006:1,2014-02-15T08:00:00Z,27.8217,-97.2040,0.881,1111122 
TCOON,ioos:station:TCOON:006:1,2014-02-15T08:30:00Z,27.8217,-97.2040,0.886,1111122 
TCOON,ioos:station:TCOON:006:1,2014-02-15T09:00:00Z,27.8217,-97.2040,0.884,1111122 
TCOON,ioos:station:TCOON:006:1,2014-02-15T09:30:00Z,27.8217,-97.2040,0.894,1111122 
TCOON,ioos:station:TCOON:006:1,2014-02-15T14:00:00Z,27.8217,-97.2040,0.838,1111122 
TCOON,ioos:station:TCOON:006:1,2014-02-15T14:30:00Z,27.8217,-97.2040,0.825,1111122 
TCOON,ioos:station:TCOON:006:1,2014-02-15T15:00:00Z,27.8217,-97.2040,0.815,1111122 
TCOON,ioos:station:TCOON:006:1,2014-02-15T15:30:00Z,27.8217,-97.2040,0.816,1111122 
TCOON,ioos:station:TCOON:006:1,2014-02-15T16:00:00Z,27.8217,-97.2040,0.808,1111122 
TCOON,ioos:station:TCOON:006:1,2014-02-15T16:30:00Z,27.8217,-97.2040,0.788,1111122 
TCOON,ioos:station:TCOON:006:1,2014-02-15T17:00:00Z,27.8217,-97.2040,0.788,1111122 
TCOON,ioos:station:TCOON:006:1,2014-02-15T17:30:00Z,27.8217,-97.2040,0.788,1111122 
TCOON,ioos:station:TCOON:006:1,2014-02-15T18:00:00Z,27.8217,-97.2040,0.787,1111122 
TCOON,ioos:station:TCOON:006:1,2014-02-15T18:30:00Z,27.8217,-97.2040,0.798,1111122 
TCOON,ioos:station:TCOON:006:1,2014-02-15T19:00:00Z,27.8217,-97.2040,0.784,1111122 
TCOON,ioos:station:TCOON:006:1,2014-02-15T19:30:00Z,27.8217,-97.2040,0.779,1111122 
TCOON,ioos:station:TCOON:006:1,2014-02-15T20:06:00Z,27.8217,-97.2040,0.782,1111122 
TCOON,ioos:station:TCOON:006:1,2014-02-15T20:48:00Z,27.8217,-97.2040,0.795,1111122 
TCOON,ioos:station:TCOON:006:1,2014-02-15T21:36:00Z,27.8217,-97.2040,0.802,1111122 
TCOON,ioos:station:TCOON:006:1,2014-02-15T22:00:00Z,27.8217,-97.2040,0.823,1111122 
TCOON,ioos:station:TCOON:006:1,2014-02-15T22:30:00Z,27.8217,-97.2040,0.826,1111122 
TCOON,ioos:station:TCOON:006:1,2014-02-15T23:00:00Z,27.8217,-97.2040,0.839,1111122 
TCOON,ioos:station:TCOON:006:1,2014-02-15T23:30:00Z,27.8217,-97.2040,0.841,1111122 
TCOON,ioos:station:TCOON:006:1,2014-02-16T00:00:00Z,27.8217,-97.2040,0.836,1111122 
TCOON,ioos:station:TCOON:006:1,2014-02-16T00:30:00Z,27.8217,-97.2040,0.861,1111122 
TCOON,ioos:station:TCOON:006:1,2014-02-16T01:00:00Z,27.8217,-97.2040,0.871,1111122 
TCOON,ioos:station:TCOON:006:1,2014-02-16T01:30:00Z,27.8217,-97.2040,0.874,1111122 
TCOON,ioos:station:TCOON:006:1,2014-02-16T02:00:00Z,27.8217,-97.2040,0.88,1111122 
TCOON,ioos:station:TCOON:006:1,2014-02-16T02:30:00Z,27.8217,-97.2040,0.888,1111122 
TCOON,ioos:station:TCOON:006:1,2014-02-16T03:00:00Z,27.8217,-97.2040,0.857,1111122 
TCOON,ioos:station:TCOON:006:1,2014-02-16T03:30:00Z,27.8217,-97.2040,0.889,1111122 
TCOON,ioos:station:TCOON:006:1,2014-02-16T04:00:00Z,27.8217,-97.2040,0.89,1111122 
TCOON,ioos:station:TCOON:006:1,2014-02-16T04:30:00Z,27.8217,-97.2040,0.886,1111122 
TCOON,ioos:station:TCOON:006:1,2014-02-16T05:00:00Z,27.8217,-97.2040,0.878,1111122 
TCOON,ioos:station:TCOON:006:1,2014-02-16T05:48:00Z,27.8217,-97.2040,0.872,1111122 
TCOON,ioos:station:TCOON:006:1,2014-02-16T06:00:00Z,27.8217,-97.2040,0.866,1111122 
TCOON,ioos:station:TCOON:006:1,2014-02-16T06:30:00Z,27.8217,-97.2040,0.865,1111122 
TCOON,ioos:station:TCOON:006:1,2014-02-16T07:00:00Z,27.8217,-97.2040,0.86,1111122 
TCOON,ioos:station:TCOON:006:1,2014-02-16T07:30:00Z,27.8217,-97.2040,0.861,1111122 
TCOON,ioos:station:TCOON:006:1,2014-02-16T08:00:00Z,27.8217,-97.2040,0.862,1111122 
TCOON,ioos:station:TCOON:006:1,2014-02-16T08:30:00Z,27.8217,-97.2040,0.862,1111122 
TCOON,ioos:station:TCOON:006:1,2014-02-16T09:00:00Z,27.8217,-97.2040,0.862,1111122 
TCOON,ioos:station:TCOON:006:1,2014-02-16T09:30:00Z,27.8217,-97.2040,0.863,1111122 
TCOON,ioos:station:TCOON:006:1,2014-02-16T10:00:00Z,27.8217,-97.2040,0.869,1111122 
TCOON,ioos:station:TCOON:006:1,2014-02-16T11:00:00Z,27.8217,-97.2040,0.87,1111122 
TCOON,ioos:station:TCOON:006:1,2014-02-16T11:30:00Z,27.8217,-97.2040,0.872,1111122 
TCOON,ioos:station:TCOON:006:1,2014-02-16T12:00:00Z,27.8217,-97.2040,0.869,1111122 
TCOON,ioos:station:TCOON:006:1,2014-02-16T12:30:00Z,27.8217,-97.2040,0.863,1111122 
TCOON,ioos:station:TCOON:006:1,2014-02-16T13:00:00Z,27.8217,-97.2040,0.863,1111122 
TCOON,ioos:station:TCOON:006:1,2014-02-16T13:30:00Z,27.8217,-97.2040,0.86,1111122 
TCOON,ioos:station:TCOON:006:1,2014-02-16T14:00:00Z,27.8217,-97.2040,0.848,1111122 
TCOON,ioos:station:TCOON:006:1,2014-02-16T14:30:00Z,27.8217,-97.2040,0.84,1111122 
TCOON,ioos:station:TCOON:006:1,2014-02-16T15:00:00Z,27.8217,-97.2040,0.83,1111122 
TCOON,ioos:station:TCOON:006:1,2014-02-16T15:30:00Z,27.8217,-97.2040,0.827,1111122 
TCOON,ioos:station:TCOON:006:1,2014-02-16T16:00:00Z,27.8217,-97.2040,0.82,1111122 
TCOON,ioos:station:TCOON:006:1,2014-02-16T16:30:00Z,27.8217,-97.2040,0.806,1111122 
TCOON,ioos:station:TCOON:006:1,2014-02-16T17:00:00Z,27.8217,-97.2040,0.797,1111122 
TCOON,ioos:station:TCOON:006:1,2014-02-16T17:30:00Z,27.8217,-97.2040,0.788,1111122 
TCOON,ioos:station:TCOON:006:1,2014-02-16T18:00:00Z,27.8217,-97.2040,0.781,1111122 
TCOON,ioos:station:TCOON:006:1,2014-02-16T18:30:00Z,27.8217,-97.2040,0.774,1111122 
TCOON,ioos:station:TCOON:006:1,2014-02-16T19:00:00Z,27.8217,-97.2040,0.781,1111122 
TCOON,ioos:station:TCOON:006:1,2014-02-16T19:30:00Z,27.8217,-97.2040,0.786,1111122 
TCOON,ioos:station:TCOON:006:1,2014-02-16T20:00:00Z,27.8217,-97.2040,0.778,1111122 
TCOON,ioos:station:TCOON:006:1,2014-02-16T20:36:00Z,27.8217,-97.2040,0.762,1111122 
TCOON,ioos:station:TCOON:006:1,2014-02-16T21:00:00Z,27.8217,-97.2040,0.798,1111122 
TCOON,ioos:station:TCOON:006:1,2014-02-16T21:36:00Z,27.8217,-97.2040,0.785,1111122 
TCOON,ioos:station:TCOON:006:1,2014-02-16T22:00:00Z,27.8217,-97.2040,0.798,1111122 
TCOON,ioos:station:TCOON:006:1,2014-02-16T22:36:00Z,27.8217,-97.2040,0.809,1111122 
TCOON,ioos:station:TCOON:006:1,2014-02-16T23:06:00Z,27.8217,-97.2040,0.807,1111122 
TCOON,ioos:station:TCOON:006:1,2014-02-16T23:36:00Z,27.8217,-97.2040,0.832,1111122 
TCOON,ioos:station:TCOON:006:1,2014-02-17T00:06:00Z,27.8217,-97.2040,0.829,1111122 
TCOON,ioos:station:TCOON:006:1,2014-02-17T00:36:00Z,27.8217,-97.2040,0.841,1111122 
TCOON,ioos:station:TCOON:006:1,2014-02-17T01:06:00Z,27.8217,-97.2040,0.843,1111122 
TCOON,ioos:station:TCOON:006:1,2014-02-17T01:36:00Z,27.8217,-97.2040,0.851,1111122 
TCOON,ioos:station:TCOON:006:1,2014-02-17T02:06:00Z,27.8217,-97.2040,0.86,1111122 
TCOON,ioos:station:TCOON:006:1,2014-02-17T02:36:00Z,27.8217,-97.2040,0.862,1111122 
TCOON,ioos:station:TCOON:006:1,2014-02-17T03:06:00Z,27.8217,-97.2040,0.866,1111122 
TCOON,ioos:station:TCOON:006:1,2014-02-17T03:36:00Z,27.8217,-97.2040,0.87,1111122 
TCOON,ioos:station:TCOON:006:1,2014-02-17T04:06:00Z,27.8217,-97.2040,0.879,1111122 
TCOON,ioos:station:TCOON:006:1,2014-02-17T04:36:00Z,27.8217,-97.2040,0.874,1111122 
TCOON,ioos:station:TCOON:006:1,2014-02-17T05:06:00Z,27.8217,-97.2040,0.875,1111122 
TCOON,ioos:station:TCOON:006:1,2014-02-17T05:36:00Z,27.8217,-97.2040,0.873,1111122 
TCOON,ioos:station:TCOON:006:1,2014-02-17T06:06:00Z,27.8217,-97.2040,0.869,1111122 
TCOON,ioos:station:TCOON:006:1,2014-02-17T06:36:00Z,27.8217,-97.2040,0.864,1111122 
TCOON,ioos:station:TCOON:006:1,2014-02-17T07:06:00Z,27.8217,-97.2040,0.864,1111122 
TCOON,ioos:station:TCOON:006:1,2014-02-17T07:36:00Z,27.8217,-97.2040,0.858,1111122 
TCOON,ioos:station:TCOON:006:1,2014-02-17T08:06:00Z,27.8217,-97.2040,0.855,1111122 
TCOON,ioos:station:TCOON:006:1,2014-02-17T08:36:00Z,27.8217,-97.2040,0.857,1111122 
TCOON,ioos:station:TCOON:006:1,2014-02-17T09:06:00Z,27.8217,-97.2040,0.857,1111122 
TCOON,ioos:station:TCOON:006:1,2014-02-17T09:36:00Z,27.8217,-97.2040,0.855,1111122 
TCOON,ioos:station:TCOON:006:1,2014-02-17T10:06:00Z,27.8217,-97.2040,0.863,1111122 
TCOON,ioos:station:TCOON:006:1,2014-02-17T10:30:00Z,27.8217,-97.2040,0.872,1111122 
TCOON,ioos:station:TCOON:006:1,2014-02-17T11:06:00Z,27.8217,-97.2040,0.871,1111122 
TCOON,ioos:station:TCOON:006:1,2014-02-17T11:36:00Z,27.8217,-97.2040,0.873,1111122 
TCOON,ioos:station:TCOON:006:1,2014-02-17T12:06:00Z,27.8217,-97.2040,0.875,1111122 
TCOON,ioos:station:TCOON:006:1,2014-02-17T12:36:00Z,27.8217,-97.2040,0.871,1111122 
TCOON,ioos:station:TCOON:006:1,2014-02-17T13:06:00Z,27.8217,-97.2040,0.868,1111122 
TCOON,ioos:station:TCOON:006:1,2014-02-17T13:36:00Z,27.8217,-97.2040,0.862,1111122 
TCOON,ioos:station:TCOON:006:1,2014-02-17T14:06:00Z,27.8217,-97.2040,0.846,1111122 
TCOON,ioos:station:TCOON:006:1,2014-02-17T14:30:00Z,27.8217,-97.2040,0.845,1111122 
TCOON,ioos:station:TCOON:006:1,2014-02-17T15:06:00Z,27.8217,-97.2040,0.837,1111122 
TCOON,ioos:station:TCOON:006:1,2014-02-17T15:36:00Z,27.8217,-97.2040,0.82,1111122 
TCOON,ioos:station:TCOON:006:1,2014-02-17T16:06:00Z,27.8217,-97.2040,0.819,1111122 
TCOON,ioos:station:TCOON:006:1,2014-02-17T16:36:00Z,27.8217,-97.2040,0.795,1111122 
TCOON,ioos:station:TCOON:006:1,2014-02-17T17:06:00Z,27.8217,-97.2040,0.797,1111122 
TCOON,ioos:station:TCOON:006:1,2014-02-17T17:36:00Z,27.8217,-97.2040,0.768,1111122 